FW0441 Weather Reports


Display with metric or nautical units.
time (UTC)temp
F
wind
direction
speed
MPH
gust
MPH
rain 1hr
in
rain 24hr
in
rain mn
in
humidity
%
barometer
mb
20240417081913 47 27 2.0 5.0 0.07 1.36 0.12 94 995.6
20240417081414 47 24 2.0 5.0 0.07 1.35 0.11 94 995.4
20240417080914 47 40 2.0 4.0 0.06 1.34 0.10 94 995.3
20240417080415 47 46 2.0 5.0 0.06 1.33 0.09 94 995.4
20240417075913 47 49 2.0 5.0 0.07 1.32 0.08 94 995.4
20240417075413 47 25 2.0 4.0 0.07 1.31 0.07 94 995.3
20240417074914 47 24 3.0 5.0 0.07 1.31 0.07 93 995.4
20240417074411 47 23 3.0 6.0 0.06 1.30 0.06 93 995.4
20240417073912 47 22 3.0 7.0 0.06 1.30 0.06 93 995.5
20240417073411 47 11 3.0 7.0 0.06 1.30 0.06 93 995.4
20240417072912 47 20 2.0 5.0 0.06 1.30 0.06 93 995.6
20240417072412 47 36 2.0 5.0 0.05 1.29 0.05 92 995.6
20240417071911 47 13 2.0 8.0 0.05 1.29 0.05 92 995.6
20240417071412 47 57 3.0 8.0 0.04 1.28 0.04 92 995.6
20240417070912 47 29 3.0 6.0 0.04 1.28 0.04 92 995.7
20240417070410 47 49 2.0 5.0 0.03 1.27 0.03 92 995.8
20240417065912 47 32 2.0 7.0 0.01 1.25 0.02 91 995.9
20240417065409 48 46 3.0 7.0 0.00 1.24 0.00 91 995.9
20240417065143 48 25 3.0 8.0 0.00 1.24 0.00 91 995.9
20240417064640 48 32 3.0 8.0 0.00 1.24 0.00 91 995.7
20240417063909 48 32 3.0 8.0 0.00 1.24 0.00 91 995.9
20240417063409 48 355 4.0 8.0 0.00 1.24 0.00 91 995.8
20240417062910 48 25 4.0 8.0 0.00 1.24 0.00 91 996.0
20240417062411 48 17 3.0 8.0 0.00 1.24 0.00 91 996.0
20240417061910 48 65 2.0 8.0 0.00 1.24 0.00 91 996.1
20240417061640 48 24 3.0 8.0 0.00 1.24 0.00 91 996.3
20240417060909 48 24 3.0 8.0 0.00 1.24 0.00 91 996.1
20240417060408 48 25 4.0 8.0 0.00 1.24 0.00 90 996.3
20240417055909 48 29 4.0 8.0 0.00 1.24 0.00 90 996.2
20240417055640 48 38 3.0 9.0 0.00 1.24 0.00 90 996.4
20240417054910 48 24 3.0 9.0 0.00 1.24 0.00 90 996.5
20240417054409 48 22 3.0 8.0 0.00 1.24 0.00 90 996.4
20240417053910 48 39 4.0 10.0 0.00 1.24 0.00 89 996.5
20240417053641 48 24 4.0 11.0 0.00 1.24 0.00 89 996.6
20240417052907 48 30 4.0 11.0 0.00 1.24 0.00 89 996.5
20240417052409 48 27 3.0 10.0 0.00 1.24 0.00 89 996.8
20240417051907 49 23 3.0 10.0 0.00 1.24 0.00 89 996.8
20240417051406 49 32 3.0 8.0 0.00 1.24 0.00 89 996.9
20240417050906 49 26 4.0 10.0 0.00 1.24 0.00 89 996.9
20240417050406 49 36 4.0 10.0 0.00 1.24 0.00 89 997.0
20240417045907 49 11 4.0 10.0 0.00 1.24 1.24 89 997.2
20240417045406 49 61 3.0 7.0 0.00 1.24 1.24 89 997.3
20240417044907 49 78 2.0 5.0 0.00 1.24 1.24 89 997.5
20240417044405 49 51 2.0 5.0 0.00 1.24 1.24 89 997.7
20240417043903 49 20 2.0 7.0 0.00 1.24 1.24 89 997.9
20240417043404 49 34 2.0 7.0 0.00 1.24 1.24 89 997.7
20240417042903 49 35 2.0 8.0 0.00 1.24 1.24 88 997.8
20240417042403 49 36 2.0 8.0 0.00 1.24 1.24 88 997.7
20240417041904 49 36 2.0 7.0 0.00 1.24 1.24 88 997.7
20240417041403 49 10 2.0 11.0 0.00 1.24 1.24 88 997.8
20240417041134 49 51 3.0 11.0 0.00 1.24 1.24 87 998.0
20240417040406 49 338 2.0 9.0 0.00 1.24 1.24 87 998.1
20240417040401 49 60 3.0 9.0 0.00 1.24 1.24 87 998.1
20240417035632 49 125 2.0 6.0 0.00 1.24 1.24 87 998.4
20240417034902 49 203 2.0 6.0 0.00 1.24 1.24 87 998.6
20240417034401 49 338 2.0 11.0 0.00 1.24 1.24 87 998.6
20240417033901 49 175 4.0 11.0 0.00 1.24 1.24 87 998.8
20240417033401 49 236 4.0 10.0 0.00 1.24 1.24 87 998.7
20240417032859 49 188 3.0 10.0 0.00 1.24 1.24 88 998.7
20240417032359 49 190 3.0 9.0 0.00 1.24 1.24 88 998.2
20240417031859 49 295 3.0 11.0 0.00 1.24 1.24 89 998.0
20240417031401 49 60 3.0 11.0 0.00 1.24 1.24 89 998.0
20240417030859 49 194 3.0 10.0 0.00 1.24 1.24 89 998.4
20240417030400 49 36 3.0 8.0 0.00 1.24 1.24 89 998.4
20240417025900 49 344 3.0 8.0 0.00 1.24 1.24 89 998.4
20240417025400 49 236 3.0 15.0 0.00 1.24 1.24 89 998.3
20240417024859 49 190 3.0 15.0 0.00 1.24 1.24 90 998.3
20240417024629 49 355 2.0 7.0 0.00 1.24 1.24 90 998.4
20240417023859 49 49 2.0 8.0 0.00 1.24 1.24 90 998.5
20240417023400 49 61 3.0 8.0 0.01 1.24 1.24 90 998.6
20240417022859 49 102 4.0 15.0 0.02 1.24 1.24 90 998.8
20240417022359 49 153 4.0 15.0 0.02 1.24 1.24 91 999.0
20240417021901 49 26 4.0 10.0 0.03 1.24 1.24 91 998.9
20240417021359 49 0 4.0 10.0 0.03 1.24 1.24 91 998.7
20240417021136 49 206 3.0 10.0 0.04 1.24 1.24 90 999.0
20240417020859 49 227 3.0 8.0 0.04 1.24 1.24 90 998.9
20240417015859 49 219 4.0 10.0 0.04 1.24 1.24 90 998.8
20240417015400 49 302 4.0 12.0 0.04 1.24 1.24 90 999.2
20240417014900 49 115 4.0 12.0 0.04 1.24 1.24 90 999.1
20240417014359 49 234 4.0 16.0 0.04 1.24 1.24 90 998.9
20240417013859 50 351 4.0 16.0 0.04 1.24 1.24 90 998.7
20240417013400 50 9 4.0 12.0 0.03 1.23 1.23 89 998.7
20240417012858 50 210 5.0 14.0 0.02 1.22 1.22 88 999.2
20240417012359 50 178 4.0 14.0 0.02 1.22 1.22 88 999.6
20240417011857 50 170 5.0 12.0 0.01 1.21 1.21 87 999.6
20240417011359 51 190 5.0 12.0 0.01 1.21 1.21 87 999.8
20240417010856 51 173 5.0 12.0 0.00 1.20 1.20 86 1000.2
20240417010359 51 173 4.0 11.0 0.00 1.20 1.20 86 1000.3
20240417005858 51 167 5.0 12.0 0.00 1.20 1.20 86 1000.4
20240417005357 51 192 5.0 12.0 0.00 1.20 1.20 86 1000.3
20240417004857 51 174 4.0 13.0 0.00 1.20 1.20 86 999.6
20240417004357 51 67 5.0 13.0 0.00 1.20 1.20 86 998.8
20240417003857 51 142 4.0 13.0 0.00 1.20 1.20 86 998.7
20240417003354 50 170 5.0 14.0 0.00 1.20 1.20 86 998.8
20240417002856 50 192 5.0 14.0 0.00 1.20 1.20 87 998.7
20240417002354 50 209 4.0 12.0 0.00 1.20 1.20 87 998.8
20240417001856 50 243 5.0 12.0 0.00 1.20 1.20 87 998.9
20240417001353 50 212 4.0 12.0 0.00 1.20 1.20 87 998.9
20240417000853 50 200 4.0 11.0 0.00 1.20 1.20 87 998.7
20240417000351 50 170 5.0 14.0 0.00 1.20 1.20 87 998.6
20240416235857 49 223 6.0 15.0 0.00 1.20 1.20 88 998.9
20240416235852 50 176 6.0 14.0 0.00 1.20 1.20 87 998.8
20240416234851 49 180 5.0 15.0 0.00 1.20 1.20 88 997.8
20240416234622 49 224 4.0 14.0 0.00 1.20 1.20 88 997.5
20240416233851 49 113 4.0 12.0 0.00 1.20 1.20 88 997.4
20240416233625 49 9 4.0 12.0 0.00 1.20 1.20 89 998.0
20240416232849 48 347 3.0 12.0 0.00 1.20 1.20 90 998.6
20240416232350 48 168 4.0 13.0 0.00 1.20 1.20 91 998.7
20240416231850 48 342 4.0 13.0 0.00 1.20 1.20 91 999.0
20240416231350 48 292 4.0 13.0 0.01 1.20 1.20 92 998.2
20240416230854 47 10 5.0 14.0 0.03 1.20 1.20 93 998.9
20240416230849 47 71 5.0 14.0 0.02 1.20 1.20 92 999.2
20240416225848 47 348 4.0 14.0 0.04 1.20 1.20 94 998.8
20240416225349 47 32 4.0 14.0 0.06 1.20 1.20 94 999.5
20240416224848 47 22 4.0 9.0 0.08 1.20 1.20 94 999.7
20240416224348 47 207 5.0 16.0 0.09 1.20 1.20 94 999.7
20240416223852 46 11 6.0 17.0 0.13 1.20 1.20 95 999.4
20240416223846 46 11 5.0 16.0 0.11 1.20 1.20 95 999.9
20240416222846 46 48 7.0 17.0 0.14 1.20 1.20 95 998.9
20240416222346 46 34 8.0 15.0 0.16 1.20 1.20 95 998.6
20240416221847 46 64 8.0 15.0 0.17 1.20 1.20 94 998.9
20240416221346 45 0 7.0 15.0 0.17 1.19 1.19 94 999.3
20240416220846 45 27 5.0 12.0 0.19 1.18 1.19 94 999.9
20240416220348 45 39 4.0 10.0 0.21 1.17 1.17 94 1001.1
20240416215848 45 32 3.0 8.0 0.24 1.16 1.16 94 1001.7
20240416215346 45 36 3.0 9.0 0.25 1.14 1.15 94 1002.2
20240416214847 45 49 3.0 9.0 0.31 1.12 1.13 94 1001.9
20240416214347 45 18 2.0 5.0 0.32 1.11 1.11 94 1002.2
20240416214118 45 31 3.0 7.0 0.32 1.09 1.09 93 1002.5
20240416213348 45 42 4.0 9.0 0.33 1.07 1.07 93 1002.4
20240416212852 45 24 3.0 9.0 0.35 1.04 1.05 93 1002.6
20240416212846 45 29 4.0 9.0 0.34 1.06 1.06 93 1002.1
20240416211849 45 348 2.0 4.0 0.35 1.03 1.03 92 1002.9
20240416211349 45 339 1.0 3.0 0.37 1.02 1.02 92 1003.3
20240416210846 45 200 0.0 3.0 0.36 0.99 0.99 92 1003.9
20240416210618 45 196 0.0 3.0 0.34 0.96 0.96 92 1004.9
20240416205845 45 196 0.0 2.0 0.32 0.92 0.93 92 1004.0
20240416205345 45 196 0.0 2.0 0.29 0.89 0.89 91 1004.3
20240416204847 45 196 1.0 4.0 0.23 0.81 0.83 91 1003.6
20240416204344 45 197 2.0 7.0 0.22 0.79 0.79 91 1003.9
20240416203840 45 20 4.0 13.0 0.20 0.77 0.77 90 1003.4
20240416203343 45 209 4.0 13.0 0.18 0.74 0.75 90 1004.1
20240416202838 45 347 3.0 5.0 0.16 0.72 0.72 89 1003.3
20240416202339 46 30 3.0 5.0 0.14 0.69 0.70 89 1002.8
20240416202111 46 32 2.0 5.0 0.13 0.68 0.68 88 1002.8
20240416201339 46 28 1.0 6.0 0.10 0.65 0.65 87 1003.2
20240416200838 46 49 2.0 10.0 0.08 0.63 0.63 87 1003.1
20240416200339 46 44 3.0 10.0 0.07 0.62 0.62 87 1003.0
20240416195839 46 45 3.0 9.0 0.05 0.60 0.61 86 1002.5
20240416195338 46 350 3.0 9.0 0.05 0.59 0.60 86 1002.6
20240416194836 46 74 2.0 7.0 0.04 0.58 0.58 86 1003.0
20240416194337 46 28 2.0 9.0 0.04 0.57 0.57 85 1003.3
20240416193836 46 189 3.0 9.0 0.04 0.57 0.57 85 1003.5
20240416193339 46 10 4.0 15.0 0.04 0.56 0.56 86 1002.7
20240416193334 46 167 3.0 9.0 0.03 0.56 0.56 85 1003.1
20240416192605 46 21 4.0 15.0 0.04 0.55 0.55 86 1002.5
20240416192108 46 18 5.0 17.0 0.09 0.55 0.55 87 1003.2
20240416191334 45 54 5.0 17.0 0.11 0.55 0.55 88 1002.9
20240416190834 45 0 4.0 12.0 0.12 0.55 0.55 88 1003.1
20240416190336 45 200 4.0 13.0 0.12 0.55 0.55 89 1003.5
20240416185836 45 10 5.0 13.0 0.12 0.55 0.55 89 1003.3
20240416185334 45 30 4.0 11.0 0.11 0.54 0.54 90 1003.0
20240416184835 45 28 3.0 12.0 0.12 0.54 0.54 90 1003.9
20240416184335 45 35 3.0 12.0 0.12 0.53 0.54 90 1004.7
20240416183834 45 32 4.0 14.0 0.13 0.53 0.53 90 1005.0
20240416183334 45 5 5.0 14.0 0.14 0.53 0.53 91 1004.7
20240416182835 45 14 5.0 13.0 0.13 0.52 0.52 90 1004.0
20240416182335 45 18 4.0 11.0 0.12 0.51 0.51 90 1004.7
20240416181834 45 5 3.0 13.0 0.08 0.46 0.48 90 1005.4
20240416181332 45 349 4.0 13.0 0.06 0.44 0.44 90 1005.7
20240416180834 45 42 4.0 11.0 0.06 0.43 0.43 90 1005.9
20240416180332 45 48 3.0 11.0 0.08 0.43 0.43 91 1006.0
20240416175834 45 32 3.0 9.0 0.14 0.43 0.43 91 1006.1
20240416175334 45 34 4.0 10.0 0.25 0.43 0.43 91 1006.0
20240416174839 45 100 3.0 11.0 0.27 0.41 0.41 91 1006.1
20240416174833 45 105 4.0 10.0 0.27 0.42 0.42 91 1006.0
20240416173832 45 15 3.0 11.0 0.28 0.40 0.40 91 1006.7
20240416173332 45 28 2.0 9.0 0.28 0.39 0.39 91 1007.0
20240416172832 45 28 3.0 10.0 0.29 0.39 0.39 91 1007.0
20240416172331 45 323 4.0 11.0 0.30 0.39 0.39 91 1007.0
20240416172103 45 19 4.0 13.0 0.31 0.38 0.38 90 1007.3
20240416171330 45 12 3.0 13.0 0.31 0.38 0.38 90 1007.7
20240416170830 45 34 3.0 10.0 0.31 0.37 0.37 90 1008.1
20240416170331 45 192 3.0 9.0 0.30 0.35 0.36 89 1008.2
20240416165830 45 46 3.0 11.0 0.25 0.29 0.30 88 1008.5
20240416165330 45 22 2.0 11.0 0.14 0.18 0.20 87 1008.3
20240416164832 45 30 1.0 3.0 0.12 0.15 0.15 86 1009.5
20240416164328 45 49 1.0 4.0 0.11 0.14 0.14 85 1009.1
20240416163828 46 34 2.0 5.0 0.10 0.12 0.12 85 1008.6
20240416163327 46 37 2.0 6.0 0.10 0.11 0.11 84 1009.1
20240416162827 46 59 3.0 8.0 0.10 0.10 0.10 83 1008.6
20240416162326 46 49 2.0 8.0 0.09 0.09 0.09 82 1008.5
20240416161826 46 109 1.0 4.0 0.07 0.07 0.07 81 1008.6
20240416161327 46 113 1.0 4.0 0.07 0.07 0.07 80 1009.2
20240416160824 47 172 1.0 3.0 0.06 0.06 0.06 79 1009.3
20240416160325 47 173 2.0 5.0 0.05 0.05 0.05 77 1009.6
20240416155824 47 173 2.0 10.0 0.04 0.04 0.04 75 1010.2
20240416155325 47 173 2.0 10.0 0.04 0.04 0.04 73 1009.8
20240416154824 48 111 2.0 6.0 0.03 0.03 0.03 71 1009.2
20240416154325 48 167 2.0 6.0 0.03 0.03 0.03 70 1009.6
20240416153824 49 168 2.0 6.0 0.02 0.02 0.02 68 1009.7
20240416153325 49 175 2.0 8.0 0.01 0.01 0.01 66 1009.6
20240416152825 49 184 3.0 8.0 0.00 0.00 0.01 63 1009.3
20240416152324 50 159 3.0 8.0 0.00 0.00 0.00 62 1009.3
20240416151823 50 186 3.0 8.0 0.00 0.00 0.00 61 1009.1
20240416151556 50 171 4.0 11.0 0.00 0.00 0.00 60 1009.0
20240416151057 49 144 4.0 11.0 0.00 0.00 0.00 60 1009.1
20240416150324 49 188 3.0 9.0 0.00 0.00 0.00 60 1009.1
20240416145821 49 167 3.0 8.0 0.00 0.00 0.00 62 1008.2
20240416145552 49 261 3.0 11.0 0.00 0.00 0.00 63 1007.8
20240416144823 49 47 4.0 11.0 0.00 0.00 0.00 63 1007.9
20240416144553 49 208 4.0 11.0 0.00 0.00 0.00 63 1008.4
20240416143821 49 188 3.0 7.0 0.00 0.00 0.00 63 1009.0
20240416143322 50 170 3.0 9.0 0.00 0.00 0.00 62 1009.1
20240416142821 50 157 4.0 10.0 0.00 0.00 0.00 59 1009.4
20240416142554 51 149 4.0 10.0 0.00 0.00 0.00 57 1009.7
20240416142436 51 204 4.0 10.0 0.00 0.00 0.00 55 1009.7
20240416142244 51 172 3.0 8.0 0.00 0.00 0.00 51 1009.8
20240416141502 51 188 4.0 13.0 0.00 0.00 0.00 50 1009.8
20240416141243 52 182 6.0 13.0 0.00 0.00 0.00 50 1010.1
20240416135820 51 176 6.0 11.0 0.00 0.00 0.00 50 1010.7
20240416135625 51 5 6.0 13.0 0.00 0.00 0.00 50 1010.1
20240416135328 51 165 5.0 11.0 0.00 0.00 0.00 50 1010.6
20240416134606 51 157 6.0 13.0 0.00 0.00 0.00 50 1009.9
20240416133821 51 125 6.0 15.0 0.00 0.00 0.00 51 1009.9
20240416133322 51 205 6.0 15.0 0.00 0.00 0.00 51 1009.9
20240416133318 51 173 6.0 18.0 0.00 0.00 0.00 56 1010.8
20240416133040 51 176 5.0 11.0 0.00 0.00 0.00 54 1010.3
20240416133032 51 173 5.0 27.0 0.00 0.00 0.00 52 1010.1
20240416133027 51 178 4.0 13.0 0.00 0.00 0.00 53 1010.0
20240416133021 51 155 4.0 13.0 0.00 0.00 0.00 54 1009.9
20240416133014 51 186 7.0 27.0 0.00 0.00 0.00 52 1010.2
20240416133008 51 194 7.0 18.0 0.00 0.00 0.00 52 1010.3
20240416132933 51 191 6.0 13.0 0.00 0.00 0.00 52 1010.4
20240416125546 51 192 5.0 14.0 0.00 0.00 0.00 56 1010.6
20240416125054 51 212 5.0 18.0 0.00 0.00 0.00 56 1010.9
20240416124815 51 188 5.0 18.0 0.00 0.00 0.00 56 1010.6
20240416115715 52 208 6.0 14.0 0.00 0.00 0.00 52 1010.6
20240416114738 52 144 6.0 14.0 0.00 0.00 0.00 52 1010.6
20240416113043 53 169 7.0 15.0 0.00 0.00 0.00 52 1010.4
20240416112545 53 166 8.0 15.0 0.00 0.00 0.00 52 1010.4
20240416112043 53 174 7.0 16.0 0.00 0.00 0.00 51 1010.2
20240416111314 53 169 6.0 16.0 0.00 0.00 0.00 51 1010.1
20240416110812 53 143 5.0 14.0 0.00 0.00 0.00 51 1010.1
20240416110312 53 198 5.0 14.0 0.00 0.00 0.00 51 1010.3
20240416105813 53 168 5.0 15.0 0.00 0.00 0.00 51 1010.2
20240416105546 54 5 5.0 15.0 0.00 0.00 0.00 51 1010.0
20240416104813 54 167 6.0 15.0 0.00 0.00 0.00 50 1010.1
20240416104312 54 180 7.0 15.0 0.00 0.00 0.00 50 1010.3
20240416104042 54 174 6.0 15.0 0.00 0.00 0.00 50 1010.4
20240416103309 54 191 6.0 15.0 0.00 0.00 0.00 49 1010.4
20240416102811 54 159 6.0 13.0 0.00 0.00 0.00 49 1010.6
20240416102307 54 191 6.0 15.0 0.00 0.00 0.00 48 1010.6
20240416101809 54 165 5.0 15.0 0.00 0.00 0.00 48 1010.6
20240416101538 55 180 5.0 10.0 0.00 0.00 0.00 48 1010.6
20240416100807 55 155 5.0 11.0 0.00 0.00 0.00 47 1010.7
20240416100308 55 193 5.0 11.0 0.00 0.00 0.00 46 1010.6
20240416095807 55 209 4.0 12.0 0.00 0.00 0.00 46 1010.7
20240416095307 55 189 3.0 12.0 0.00 0.00 0.00 46 1010.9
20240416094808 55 173 3.0 7.0 0.00 0.00 0.00 45 1010.8
20240416094310 55 28 4.0 10.0 0.00 0.00 0.00 45 1010.9
20240416093808 55 177 4.0 10.0 0.00 0.00 0.00 44 1011.3
20240416093305 55 171 4.0 11.0 0.00 0.00 0.00 43 1011.3
20240416092806 55 159 4.0 11.0 0.00 0.00 0.00 43 1011.4
20240416092305 54 169 3.0 8.0 0.00 0.00 0.00 43 1011.2
20240416091807 55 96 4.0 8.0 0.00 0.00 0.00 42 1011.0
20240416091305 55 166 3.0 16.0 0.00 0.00 0.00 42 1010.7
20240416090805 55 199 3.0 16.0 0.00 0.00 0.00 42 1010.8
20240416090306 55 67 3.0 7.0 0.00 0.00 0.00 41 1010.7
20240416085805 55 190 4.0 9.0 0.00 0.00 0.00 41 1011.0
20240416085305 55 190 4.0 12.0 0.00 0.00 0.00 40 1011.1
20240416084806 55 150 4.0 12.0 0.00 0.00 0.00 40 1011.1
20240416084305 55 167 4.0 11.0 0.00 0.00 0.00 40 1010.9
20240416083804 55 173 3.0 9.0 0.00 0.00 0.00 39 1010.8
20240416083306 55 174 3.0 9.0 0.00 0.00 0.00 39 1010.7
20240416083035 55 36 3.0 9.0 0.00 0.00 0.00 39 1010.7
20240416082303 55 187 3.0 9.0 0.00 0.00 0.00 39 1010.7